STARLINK-35773 (67042 NORAD) Tracking and Keplerian Element Data

This shows tracking and keplerian element data for the satellite.

Feedback or suggestion? Click here.




ElementValue
Catalog67042
NameSTARLINK-35773
Epoch Orbit151
Epoch Day354.25003472
Epoch Year2025
RAAN136.2345
Inclination42.9999
Eccentricity0.0001844
Argument of Perigee260.0512
Mean Anonmoly349.5646
Mean Motion15.88968309
Decay Rate-0.01380936
L11 67042U 25294N 25354.25003472 -.01380936 00000+0 -53390-2 0 9996
L22 67042 42.9999 136.2345 0001844 260.0512 349.5646 15.88968309 1511



Live tracking and technical data element details for STARLINK-35773 (NORAD 67042). STARLINK-35773 can be tracked NOW for your location showing map with azimuth and elevation plus other details from your city location.







IsCatalogInMostPopularTable: catalog: 67042, numindb: 17
Update: records affected: 1



GetName: 67042 STARLINK-35773

Hit Count: updated at: Fri, 16 Jan 2026 08:18:39 GMT